Theta_e
354 355 356 355 355 358 356 356 358 359 363 363 365 364 363 361 362 363 362 360 359 358 359 359 360 364 354 352 351 351 350 349 343 344 348 353 362 362 362 364 359 356 353
355 356 356 353 355 354 356 356 360 358 363 361 363 365 362 358 362 362 359 356 358 355 355 357 357 354 360 361 354 358 356 357 350 351 357 352 358 362 363 365 359 356 357
356 354 359 352 352 354 356 357 361 359 359 359 362 361 358 360 361 361 360 359 359 357 356 356 355 357 357 355 358 355 351 353 356 351 349 351 353 356 358 364 361 362 354
353 355 353 353 353 354 357 359 359 362 357 358 359 361 360 359 360 362 360 359 359 357 359 357 358 357 358 359 356 360 357 357 355 351 349 348 349 358 356 350 347 351 351
347 346 350 354 357 358 358 360 360 361 359 362 360 361 362 360 355 361 362 360 360 359 360 359 359 356 348 349 359 363 360 357 350 349 347 347 346 353 352 351 348 349 355
341 340 341 343 348 352 354 356 358 359 361 362 360 360 361 357 327 330 345 360 362 360 358 360 360 354 352 340 339 338 347 360 357 354 350 349 358 358 353 350 351 349 347
341 341 340 343 343 344 347 351 354 355 356 356 356 356 348 345 322 327 334 359 362 358 358 359 358 352 350 354 347 341 339 336 338 359 356 356 357 363 363 359 362 356 354
342 341 345 341 339 338 338 341 345 348 350 352 349 346 340 329 318 324 336 358 352 350 351 348 346 342 335 335 350 354 357 359 361 357 360 360 362 360 357 360 359 359 359
331 335 339 336 334 334 333 337 340 346 347 347 343 338 332 324 312 315 339 348 345 343 338 338 340 335 317 319 341 343 345 348 338 335 333 328 326 326 334 351 350 356 350
325 325 329 333 339 340 340 336 335 343 335 331 331 326 319 318 308 310 326 341 339 338 338 335 317 319 313 313 335 335 334 333 333 337 341 340 336 343 329 352 354 349 351
325 328 328 329 331 333 334 336 333 325 322 324 321 313 312 311 310 306 308 326 331 330 329 328 326 313 309 310 312 331 327 329 334 338 339 340 343 345 346 350 353 348 344
326 326 327 327 326 329 332 332 328 325 323 323 320 318 315 314 305 305 305 307 312 319 319 319 321 309 308 311 319 314 313 318 331 331 333 335 337 338 340 344 349 350 352
323 323 323 324 325 327 329 324 321 327 325 324 322 320 314 316 312 306 305 307 309 314 314 312 312 309 310 314 315 316 316 327 326 325 327 330 333 336 340 344 343 346 348
320 320 321 321 321 322 321 323 323 323 323 321 320 318 316 309 306 303 307 312 310 313 315 320 315 314 314 317 320 322 325 325 325 325 325 325 328 330 330 331 329 330 330
317 317 317 316 318 316 311 311 311 305 303 318 315 313 314 312 302 297 298 303 305 305 309 315 313 313 313 315 317 317 318 315 315 315 316 317 319 321 322 324 323 323 323
315 315 315 315 314 312 309 304 297 296 295 294 294 300 301 296 294 293 293 295 296 298 310 309 307 308 307 308 306 307 310 311 311 311 312 313 315 317 318 318 320 320 319
315 315 313 310 312 311 309 306 302 297 295 294 293 293 293 293 293 292 292 294 296 300 309 309 308 307 306 307 308 307 306 307 308 307 308 310 311 312 312 312 313 314 313
314 302 310 310 309 309 308 308 307 305 304 301 294 296 293 293 293 292 293 296 306 306 307 306 306 306 306 306 306 306 307 307 307 307 307 307 306 306 306 308 309 310 311
308 305 306 307 307 307 307 306 307 306 305 304 303 297 296 293 294 294 295 307 306 305 305 304 304 304 304 305 305 305 305 304 304 306 306 306 306 306 306 306 306 303 304
306 304 305 306 304 305 305 305 305 305 304 304 304 304 306 302 305 306 306 306 305 304 304 304 304 304 304 303 303 303 303 303 303 303 303 303 303 304 303 303 304 303 304
305 304 305 305 305 305 305 304 305 304 304 304 303 298 290 305 305 305 305 305 304 304 304 304 304 304 304 303 302 301 301 301 301 301 301 300 300 300 301 301 301 301 301
305 305 304 305 305 305 305 305 305 304 304 303 303 298 294 304 305 305 305 304 304 304 304 304 303 302 302 301 300 299 299 298 299 298 297 296 297 297 298 298 298 298 299
306 305 305 305 305 304 304 305 305 305 305 305 305 303 303 305 305 306 305 305 306 306 306 306 304 302 302 301 300 299 297 296 295 294 292 292 292 293 293 293 293 293 294
308 306 305 305 305 305 305 306 306 301 306 305 304 304 304 305 305 304 306 306 306 306 306 305 304 301 301 300 299 298 298 296 294 293 292 291 290 291 291 291 292 293 293
306 307 306 306 305 305 306 306 307 307 306 306 305 304 304 305 305 305 305 306 306 305 304 303 303 301 300 299 298 297 293 287 291 289 292 293 292 292 292 292 292 292 292
306 306 308 307 306 305 305 306 306 307 306 306 306 306 305 305 305 305 305 306 305 305 304 303 302 301 300 300 299 292 286 286 291 286 291 292 293 293 292 292 292 292 292
Wind_Speed
10 10 10 8 8 7 7 8 4 4 5 5 6 6 5 6 7 7 5 3 6 5 5 5 5 4 7 6 5 6 6 6 8 8 9 7 8 9 10 9 10 10 4
8 9 10 11 8 8 8 8 5 6 4 4 4 6 5 5 5 7 6 5 6 6 6 5 6 5 4 6 7 5 8 7 8 9 8 9 6 8 7 9 7 10 8
8 10 8 11 12 10 9 9 7 8 7 7 5 4 5 5 5 6 6 6 6 6 6 5 6 6 6 7 5 7 6 6 5 7 8 9 7 7 7 8 8 7 9
5 5 6 9 12 10 9 9 9 8 8 8 7 6 6 5 5 5 7 6 6 7 6 6 6 7 7 7 7 6 8 7 7 9 9 9 8 6 7 8 8 8 9
7 7 6 4 3 6 8 8 8 8 8 7 8 7 6 6 4 5 6 6 6 6 6 7 8 3 4 4 5 6 8 8 8 8 8 9 8 9 10 9 10 9 10
7 6 6 3 2 3 3 5 5 5 6 5 5 4 2 2 10 9 8 7 7 6 5 5 5 3 5 7 7 7 7 8 9 8 10 10 9 8 8 10 11 11 12
8 8 7 7 6 3 3 2 5 5 5 5 4 7 6 6 12 5 5 9 6 5 4 4 3 5 5 6 6 9 11 12 12 8 11 11 12 10 11 11 10 12 12
11 10 10 8 7 4 1 3 3 3 5 5 6 7 8 9 15 10 1 3 9 9 6 6 7 5 6 8 8 7 8 7 4 5 8 10 9 10 9 10 12 14 12
8 7 8 6 6 6 4 2 2 2 4 7 6 7 8 10 17 16 2 7 8 8 8 7 5 6 8 9 6 6 8 7 3 7 6 10 12 12 12 8 9 7 12
9 7 5 2 5 6 5 6 4 1 9 8 9 9 8 10 17 18 13 6 6 6 6 7 12 8 7 8 6 6 5 7 10 10 9 7 10 8 14 9 7 6 8
7 8 8 5 5 5 5 4 8 9 9 9 9 6 8 8 12 16 18 7 4 5 3 3 5 8 8 7 5 6 6 7 9 9 7 6 6 6 6 8 9 9 10
7 8 7 6 5 5 7 7 9 9 9 9 8 7 5 6 10 12 13 11 10 4 4 4 4 8 7 6 6 8 11 10 6 7 7 7 8 8 8 8 8 10 11
7 7 7 6 6 6 7 8 6 6 5 6 5 6 3 2 3 7 7 8 7 5 5 6 8 8 11 8 1 10 11 6 6 7 7 7 8 9 11 9 10 11 10
6 6 6 6 6 5 5 3 3 4 3 5 4 4 3 4 5 6 6 4 3 3 2 2 6 9 8 7 5 4 7 7 7 8 8 8 9 7 8 8 10 10 10
5 5 6 6 5 7 9 8 6 9 9 0 3 3 2 3 7 7 7 5 5 4 6 2 4 5 5 6 7 8 9 8 8 8 8 8 9 10 9 9 10 11 10
3 3 2 4 6 6 7 9 15 13 14 14 13 10 8 10 7 7 7 8 8 7 1 4 5 4 5 5 6 8 8 9 9 9 9 10 10 9 10 11 10 10 11
2 1 2 3 3 5 6 6 7 8 10 10 11 13 14 9 6 5 5 10 10 8 3 4 4 4 4 5 5 5 6 7 8 9 10 10 10 10 11 10 10 10 10
2 6 4 3 4 4 4 5 6 7 7 8 5 5 6 3 5 7 9 8 3 4 5 5 5 6 6 7 7 7 7 8 8 8 8 8 9 10 11 12 12 14 13
3 3 4 3 3 2 5 5 4 4 5 6 8 7 8 6 5 8 12 5 4 5 5 5 5 6 6 6 7 7 8 8 8 9 9 10 10 10 11 11 12 14 14
4 4 6 5 6 6 5 5 5 5 5 5 4 3 4 7 4 3 4 4 4 5 5 5 5 5 6 6 6 7 8 8 9 9 10 10 10 11 12 13 13 14 13
8 8 8 6 6 5 5 5 5 4 4 4 5 5 7 3 3 3 3 4 4 4 4 4 3 3 4 4 5 6 7 8 8 9 10 10 11 12 12 12 13 13 14
7 8 8 7 6 6 6 5 5 4 5 5 6 6 8 6 3 3 3 3 4 3 4 3 4 4 4 5 5 6 7 8 8 10 10 11 12 12 13 13 13 13 14
9 9 9 8 6 4 5 6 5 5 5 4 3 5 6 3 3 2 2 2 2 1 2 1 2 4 4 5 5 5 6 7 7 8 11 11 11 12 13 14 14 14 14
10 11 10 9 9 9 9 7 7 3 3 5 5 4 3 3 3 3 1 1 1 1 1 2 2 4 4 4 4 5 5 5 7 10 12 12 12 12 12 13 13 16 14
10 11 11 11 10 10 9 9 8 8 7 6 5 5 5 4 4 4 4 3 2 3 3 3 3 4 6 5 7 8 4 4 10 12 10 13 15 18 15 14 16 15 18
12 13 13 11 11 11 11 10 10 9 9 8 7 6 6 6 6 5 5 4 4 4 4 4 4 5 8 7 7 5 6 12 13 9 10 11 12 12 13 15 20 15 18
Wind_Direction
201 208 219 209 223 233 222 231 223 259 212 202 213 212 199 211 219 209 246 246 223 240 268 260 262 280 283 293 271 271 272 270 279 295 326 311 328 307 323 326 302 289 332
224 216 207 225 229 228 221 237 225 240 230 235 215 210 230 206 208 218 225 213 223 233 239 252 259 269 272 260 271 271 309 321 294 299 296 291 296 318 307 305 307 313 343
249 209 208 218 229 235 235 233 211 235 247 248 242 235 221 216 194 208 224 229 227 229 240 240 260 261 266 291 296 314 280 256 252 277 308 287 318 291 321 296 291 305 285
197 210 217 206 220 228 237 243 241 227 241 241 238 230 217 217 227 214 207 223 239 236 249 248 242 267 266 272 266 285 271 278 275 260 284 291 293 302 266 293 327 315 325
130 97 97 124 230 238 233 233 238 229 222 235 229 226 227 216 227 222 217 225 231 234 244 254 239 263 356 315 283 270 280 269 280 289 289 282 299 2 327 315 301 326 303
148 148 134 144 87 179 220 205 199 199 182 196 209 199 231 268 358 346 293 254 239 238 245 247 279 228 224 223 240 253 275 277 274 284 294 304 304 285 302 315 319 313 309
157 149 154 144 143 114 107 131 155 155 150 145 148 77 64 24 346 306 267 252 248 254 244 251 238 62 352 328 305 247 233 227 236 279 282 287 300 304 319 304 302 304 299
166 160 161 156 141 126 76 106 202 157 138 136 107 102 85 49 355 360 22 60 80 69 68 82 88 71 37 336 318 313 311 299 260 263 290 296 300 320 304 297 293 288 279
117 124 141 150 148 156 175 203 261 160 192 122 104 84 74 53 9 1 16 118 109 97 82 40 62 64 19 342 329 348 331 327 347 203 249 274 274 270 264 290 282 294 293
110 109 101 122 185 172 178 171 196 19 88 104 97 78 58 56 27 16 358 111 109 119 115 122 68 39 348 345 336 351 351 351 327 323 309 277 244 259 226 243 298 311 308
101 116 113 91 105 132 148 160 99 108 106 105 101 88 63 23 45 36 20 39 31 103 88 74 42 12 345 335 317 8 334 309 305 293 311 315 335 330 334 3 333 319 310
122 117 111 112 109 112 121 126 124 129 125 123 122 114 100 73 31 32 28 33 360 64 38 25 356 339 325 329 358 322 290 281 330 327 332 344 349 344 343 328 321 333 321
116 107 108 111 106 116 124 125 122 148 139 138 156 130 130 79 50 46 34 24 11 8 11 333 305 316 289 237 11 290 290 9 349 325 339 352 343 320 326 339 339 312 319
118 123 132 124 108 108 117 122 136 136 154 154 160 155 143 91 32 7 354 357 356 330 359 11 340 284 273 277 301 358 12 15 351 10 349 331 306 322 330 334 328 325 324
129 135 150 139 124 98 56 23 82 45 11 111 63 29 335 88 46 353 341 1 355 358 312 27 30 28 15 9 13 21 14 2 5 351 337 334 332 331 328 332 327 321 321
140 163 102 146 152 127 124 102 62 61 51 53 45 37 85 55 24 2 342 328 325 311 167 65 58 38 26 30 28 5 14 1 2 345 344 339 333 332 337 327 331 331 331
349 70 132 255 169 159 154 145 130 103 76 67 59 57 54 37 16 359 320 301 302 301 94 70 54 52 41 31 13 23 8 10 345 351 344 341 340 334 329 325 325 322 316
172 19 254 193 216 188 184 178 162 167 158 132 98 87 103 67 3 335 298 267 163 69 53 47 41 30 25 17 12 4 357 349 354 342 340 340 338 338 332 332 330 331 328
206 189 226 210 207 195 178 177 155 149 153 139 145 188 171 189 223 264 283 57 59 59 49 52 36 30 27 14 7 359 346 358 338 339 342 340 337 332 330 327 324 321 323
219 27 251 189 177 200 179 169 161 168 164 147 135 93 136 184 167 113 75 73 74 64 48 40 31 23 23 13 1 353 347 347 349 344 343 337 336 333 327 326 322 319 313
198 184 239 205 204 203 193 179 166 166 150 144 114 69 348 297 122 101 88 79 54 52 50 43 35 24 15 6 357 349 346 343 343 340 335 336 333 323 320 314 313 311 308
205 189 203 213 202 197 192 172 174 165 159 162 143 133 246 246 134 120 98 86 68 53 36 14 359 358 4 6 357 341 335 335 342 344 335 327 321 316 312 309 307 308 309
211 207 201 210 213 179 190 204 192 187 176 174 174 168 189 158 148 134 115 88 90 71 65 359 342 336 356 349 340 332 327 335 336 329 317 310 304 301 303 300 297 299 299
208 211 215 212 205 205 205 204 205 216 226 193 189 193 199 190 180 143 240 152 242 288 300 278 300 299 307 314 311 294 303 325 326 310 309 302 292 286 284 282 284 284 286
221 216 212 215 210 211 215 223 208 202 201 218 208 213 205 214 218 202 222 218 237 269 262 273 282 285 275 296 296 291 315 307 290 292 290 300 299 299 297 295 293 291 286
216 221 221 212 212 209 215 210 219 215 215 211 217 215 216 219 220 223 223 228 245 251 274 267 271 282 283 277 275 338 290 270 279 277 300 300 298 298 297 293 291 290 287